Location: Boćki
(52.6512°N, 23.0459°E)
Time: 07:48:37
(UTC+02:00)

ISS - Pass Details

Date: 25 March 2019
Orbit: 408 x 410 km, 51.6° (Epoch: 24 April)

Event Time Altitude Azimuth Distance (km) Brightness Sun altitude
Rises 18:38:41 0° 226° (SW) 2,330 0.5 -8.2°
Reaches altitude 10° 18:40:54 10° 215° (SW) 1,471 -0.7 -8.5°
Maximum altitude 18:43:50 30° 153° (SSE) 764 -2.8 -9.0°
Enters shadow 18:46:15 13° 95° (E) 1,289 -1.9 -9.3°
